{"data":{"norad_id":66229,"epoch":"2026-05-24T17:32:59.056512Z","epoch_age_seconds":98440,"freshness":"FRESH","line1":"1 66229U 25244Z   26144.73123908  .00028721  00000+0  97797-3 0  9993","line2":"2 66229  53.1585 236.5709 0001085  74.9808 285.1312 15.30204140 33307","mean_motion":15.3020414,"eccentricity":0.0001085,"inclination_deg":53.1585,"raan_deg":236.5709,"arg_perigee_deg":74.9808,"mean_anomaly_deg":285.1312,"bstar":0.00097797,"rev_number":3330,"period_min":94.10509110242,"perigee_km":474.4591207951,"apogee_km":475.94629551177,"semimajor_km":6853.3397081534,"source":"CELESTRAK","updated_at":"2026-05-25T13:38:21.131874Z"}}